(208368) = 2001 RD153 = 2005 JH125

Discovered at Socorro on 2001-09-12 by LINEAR.

Orbit

Orbit type: Main Belt

Note: WebGL enabled browser required.

epoch2024-03-31.0
epoch JD2460400.5
perihelion date2020-04-20.46405
perihelion JD2458959.96405
argument of perihelion (°)321.92442
ascending node (°)318.03576
inclination (°)3.00088
eccentricity0.1580106
perihelion distance (AU)2.4032301
Tisserand w.r.t. Jupiter3.3
ΔV w.r.t. Earth (km/sec)9.8
semimajor axis (AU)2.8542287
mean anomaly (°)294.43879
mean daily motion (°/day)0.20439530
aphelion distance (AU)3.305
period (years)4.82
P-vector [x]0.17352927
P-vector [y]-0.89023476
P-vector [z]-0.42115278
Q-vector [x]0.98420638
Q-vector [y]0.14156204
Q-vector [z]0.10629198
absolute magnitude16.13
phase slope0.15
uncertainty0
referenceE2024-H18
observations used402
oppositions17
arc length (days)8749
first opposition used2000
last opposition used2024
residual rms (arc-secs)0.77
perturbers coarse indicatorM-v
perturbers precise indicator003Ek
first observation date used2000-05-03.0
last observation date used2024-04-16.0
computer nameMPCLINUX
JD of orbit computation2456819.431849
perihelion JD uncertainty (days)1.7437E-04
argument of perihelion uncertainty (°)1.2627E-04
ascending node uncertainty (°)1.2203E-04
inclination uncertainty (°)8.3371E-06
eccentricity uncertainty 4.4261E-08
perihelion distance uncertainty (AU)1.3652E-07
Minimum Orbit Intersection Distances (in AU)
for orbit epoch: 2460400.5, reference: E2024-H18
Mercury1.94315
Venus1.67578
Earth1.38748
Mars0.94484
Jupiter1.83193
Saturn5.7473
Uranus15.3303
Neptune26.6791

Observations

398 total observations over interval: 2000 05 03.22289 – 2024 03 19.527883
These data are available for download (format description).

Date (UT) J2000 RA J2000 Dec Magn Location Ref
2000 05 03.22289 13 49 12.44 -16 18 08.9 19.5   704 – Lincoln Laboratory ETS, New Mexico MPS 135315
2000 05 03.23600 13 49 11.77 -16 18 06.0 19.6   704 – Lincoln Laboratory ETS, New Mexico MPS 135315
2000 05 03.24903 13 49 11.06 -16 18 02.4 19.6   704 – Lincoln Laboratory ETS, New Mexico MPS 135315
2001 08 24.37017 23 25 47.10 -01 29 32.8 20.3   704 – Lincoln Laboratory ETS, New Mexico MPS 135316
2001 08 24.38328 23 25 46.55 -01 29 35.3 19.6   704 – Lincoln Laboratory ETS, New Mexico MPS 135316
2001 08 24.39641 23 25 45.91 -01 29 37.2 19.3   704 – Lincoln Laboratory ETS, New Mexico MPS 135316
2001 09 12.33126 23 10 34.58 -02 42 22.9 19.8   704 – Lincoln Laboratory ETS, New Mexico MPS 57176
2001 09 12.34542 23 10 33.91 -02 42 27.4 20.1   704 – Lincoln Laboratory ETS, New Mexico MPS 57176
2001 09 12.35953 23 10 33.15 -02 42 31.0 19.8   704 – Lincoln Laboratory ETS, New Mexico MPS 57176
2001 09 12.37365 23 10 32.41 -02 42 33.7 20.0   704 – Lincoln Laboratory ETS, New Mexico MPS 57176
2001 09 16.19811 23 07 25.82 -02 58 36.0 20.1   644 – Palomar Mountain/NEAT MPS 57176
2001 09 16.21978 23 07 24.74 -02 58 41.3 19.4   644 – Palomar Mountain/NEAT MPS 57176
2001 09 16.24126 23 07 23.66 -02 58 46.7 19.1   644 – Palomar Mountain/NEAT MPS 57176
2001 09 20.18882 23 04 18.00 -03 14 58.5 20.1   704 – Lincoln Laboratory ETS, New Mexico MPS 58919
2001 09 20.20299 23 04 17.37 -03 15 03.1 20.0   704 – Lincoln Laboratory ETS, New Mexico MPS 58919
2001 09 20.21729 23 04 16.70 -03 15 07.1 19.3   704 – Lincoln Laboratory ETS, New Mexico MPS 58919
2001 09 20.23145 23 04 16.07 -03 15 11.5 19.8   704 – Lincoln Laboratory ETS, New Mexico MPS 58919
2001 09 22.19104 23 02 47.83 -03 22 58.8 19.3   704 – Lincoln Laboratory ETS, New Mexico MPS 58919
2001 09 22.20521 23 02 47.17 -03 23 01.8 19.5   704 – Lincoln Laboratory ETS, New Mexico MPS 58919
2001 09 22.23354 23 02 45.83 -03 23 08.4 20.1   704 – Lincoln Laboratory ETS, New Mexico MPS 58919
2001 09 22.24769 23 02 45.18 -03 23 11.9 19.8   704 – Lincoln Laboratory ETS, New Mexico MPS 58919
2001 10 11.17276 22 51 57.62 -04 22 40.2 21.0   644 – Palomar Mountain/NEAT MPS 58919
2001 10 11.19401 22 51 57.07 -04 22 42.9 21.0   644 – Palomar Mountain/NEAT MPS 58919
2001 10 11.21503 22 51 56.57 -04 22 45.4 20.5   644 – Palomar Mountain/NEAT MPS 58919
2004 02 12.19775 09 25 35.10 +15 01 55.1 20.8 V 691 – Steward Observatory, Kitt Peak-Spacewatch MPS 135316
2004 02 12.22610 09 25 33.57 +15 02 01.3 21.0 V 691 – Steward Observatory, Kitt Peak-Spacewatch MPS 135316
2004 02 12.25825 09 25 31.82 +15 02 07.7 20.9 V 691 – Steward Observatory, Kitt Peak-Spacewatch MPS 135316
2005 05 11.34748 15 29 39.65 -24 04 59.2 18.8   644 – Palomar Mountain/NEAT MPS 134991
2005 05 11.37504 15 29 38.12 -24 04 54.6 19.2   644 – Palomar Mountain/NEAT MPS 134991
2005 05 11.40548 15 29 36.43 -24 04 49.3 19.3   644 – Palomar Mountain/NEAT MPS 134991
2005 05 16.37073 15 25 09.30 -23 49 46.3 18.7   644 – Palomar Mountain/NEAT MPS 134991
2005 05 16.40756 15 25 07.24 -23 49 38.7 18.7   644 – Palomar Mountain/NEAT MPS 134991
2005 05 16.43651 15 25 05.64 -23 49 33.1 19.3   644 – Palomar Mountain/NEAT MPS 134991
2005 05 19.32175 15 22 30.71 -23 39 55.7 18.9   644 – Palomar Mountain/NEAT MPS 135316
2005 05 19.35285 15 22 29.00 -23 39 49.4 19.0   644 – Palomar Mountain/NEAT MPS 135316
2005 05 19.39886 15 22 26.44 -23 39 40.0 18.9   644 – Palomar Mountain/NEAT MPS 135316
2006 09 19.32307 00 24 13.01 +06 13 12.6 19.6 R 699 – Lowell Observatory-LONEOS MPS 179116
2006 09 19.34502 00 24 11.89 +06 13 07.4   699 – Lowell Observatory-LONEOS MPS 179116
2006 09 19.36697 00 24 10.67 +06 13 02.2   699 – Lowell Observatory-LONEOS MPS 179116
2006 09 19.38891 00 24 09.58 +06 12 54.2   699 – Lowell Observatory-LONEOS MPS 179116
2006 09 25.20949 00 19 21.94 +05 47 30.6 20.2 V 691 – Steward Observatory, Kitt Peak-Spacewatch MPS 180799
2006 09 25.22691 00 19 21.04 +05 47 25.9 20.0 V 691 – Steward Observatory, Kitt Peak-Spacewatch MPS 180799
2006 09 25.24433 00 19 20.14 +05 47 21.2 19.7 V 691 – Steward Observatory, Kitt Peak-Spacewatch MPS 180799
2006 10 02.16597 00 13 36.24 +05 15 05.8   691 – Steward Observatory, Kitt Peak-Spacewatch MPS 182470
2006 10 02.18333 00 13 35.36 +05 15 00.6   691 – Steward Observatory, Kitt Peak-Spacewatch MPS 182470
2006 10 02.20070 00 13 34.46 +05 14 55.9   691 – Steward Observatory, Kitt Peak-Spacewatch MPS 182470
2009 01 25.41530 10 35 25.86 +08 10 56.3 20.6 V 691 – Steward Observatory, Kitt Peak-Spacewatch MPS 272236
2009 01 25.42788 10 35 25.43 +08 10 58.1 21.0 V 691 – Steward Observatory, Kitt Peak-Spacewatch MPS 272236
2009 01 25.44046 10 35 25.00 +08 10 59.6 20.7 V 691 – Steward Observatory, Kitt Peak-Spacewatch MPS 272236
2009 01 31.41421 10 31 47.81 +08 26 41.1 20.6 V 691 – Steward Observatory, Kitt Peak-Spacewatch MPS 272236
2009 01 31.43226 10 31 47.14 +08 26 45.0 20.5 V 691 – Steward Observatory, Kitt Peak-Spacewatch MPS 272236
2009 01 31.45032 10 31 46.38 +08 26 47.7 20.2 V 691 – Steward Observatory, Kitt Peak-Spacewatch MPS 272236
2009 02 14.42635 10 21 12.52 +09 15 02.9 20.1 V G96 – Mt. Lemmon Survey MPS 276442
2009 02 14.43427 10 21 12.13 +09 15 04.9 20.1 V G96 – Mt. Lemmon Survey MPS 276442
2009 02 14.44233 10 21 11.70 +09 15 07.1 20.6 V G96 – Mt. Lemmon Survey MPS 276442
2009 02 14.45032 10 21 11.30 +09 15 08.4 20.8 V G96 – Mt. Lemmon Survey MPS 276442
2009 02 16.97851 10 19 04.40 +09 24 59.5 19.7 V J75 – OAM Observatory, La Sagra MPS 279986
2009 02 16.99193 10 19 03.67 +09 25 03.0 20.4 V J75 – OAM Observatory, La Sagra MPS 279986
2009 02 17.00529 10 19 02.93 +09 25 05.7 19.7 V J75 – OAM Observatory, La Sagra MPS 279986
2009 03 23.19986 09 53 02.14 +11 24 21.7 22.1 V G96 – Mt. Lemmon Survey MPS 282423
2009 03 23.20502 09 53 02.00 +11 24 20.6 21.0 V G96 – Mt. Lemmon Survey MPS 282423
2009 03 23.21013 09 53 01.78 +11 24 22.0 20.9 V G96 – Mt. Lemmon Survey MPS 282423
2009 03 23.21529 09 53 01.68 +11 24 22.5 21.5 V G96 – Mt. Lemmon Survey MPS 282423
2010 05 17.473259 17 24 34.423 -27 41 19.33 19.95 g F51 – Pan-STARRS 1, Haleakala MPS 338809
2010 05 17.485251 17 24 33.963 -27 41 19.28 20.06 g F51 – Pan-STARRS 1, Haleakala MPS 338809
2011 07 01.58177 01 15 19.939 +10 04 11.46 21.8 w F51 – Pan-STARRS 1, Haleakala MPS 386529
2011 07 01.58744 01 15 20.266 +10 04 13.78 21.8 w F51 – Pan-STARRS 1, Haleakala MPS 386529
2011 07 01.59308 01 15 20.579 +10 04 16.30 21.5 w F51 – Pan-STARRS 1, Haleakala MPS 386529
2011 07 01.59874 01 15 20.924 +10 04 18.75 21.7 w F51 – Pan-STARRS 1, Haleakala MPS 386529
2011 09 22.28404 01 34 08.76 +13 53 07.1   691 – Steward Observatory, Kitt Peak-Spacewatch MPS 392374
2011 09 22.30181 01 34 08.01 +13 53 04.8   691 – Steward Observatory, Kitt Peak-Spacewatch MPS 392374
2011 09 22.31960 01 34 07.29 +13 53 02.4   691 – Steward Observatory, Kitt Peak-Spacewatch MPS 392374
2011 10 21.20328 01 10 56.28 +11 57 33.8 19.4 V G96 – Mt. Lemmon Survey MPS 396049
2011 10 21.21323 01 10 55.77 +11 57 30.9 19.2 V G96 – Mt. Lemmon Survey MPS 396049
2011 10 21.22314 01 10 55.27 +11 57 28.1 19.9 V G96 – Mt. Lemmon Survey MPS 396049
2011 10 21.23303 01 10 54.76 +11 57 25.3 19.2 V G96 – Mt. Lemmon Survey MPS 396049
2011 10 21.31072 01 10 51.049 +11 57 03.50 20.2 w F51 – Pan-STARRS 1, Haleakala MPS 397891
2011 10 21.32455 01 10 50.347 +11 56 59.51 20.3 w F51 – Pan-STARRS 1, Haleakala MPS 397891
2011 10 21.33839 01 10 49.664 +11 56 55.55 20.2 w F51 – Pan-STARRS 1, Haleakala MPS 397891
2011 10 21.35224 01 10 48.941 +11 56 51.49 20.4 w F51 – Pan-STARRS 1, Haleakala MPS 397891
2014 01 01.37588 11 26 38.26 +02 33 31.2 20.7 V G96 – Mt. Lemmon Survey MPS 494897
2014 01 01.38258 11 26 38.35 +02 33 30.2 21.4 V G96 – Mt. Lemmon Survey MPS 494897
2014 01 01.38928 11 26 38.41 +02 33 28.9 20.9 V G96 – Mt. Lemmon Survey MPS 494897
2014 01 01.39597 11 26 38.50 +02 33 28.5 21.6 V G96 – Mt. Lemmon Survey MPS 494897
2014 01 29.45811 11 25 31.17 +02 09 15.3   691 – Steward Observatory, Kitt Peak-Spacewatch MPS 499912
2014 01 29.47578 11 25 30.78 +02 09 16.5   691 – Steward Observatory, Kitt Peak-Spacewatch MPS 499912
2014 01 29.49346 11 25 30.36 +02 09 17.7   691 – Steward Observatory, Kitt Peak-Spacewatch MPS 499912
